World > North America > United States > New York
Hourly regional weather for Worcester, New YorkWorcester, New York Regional Hourly Weather

Worcester, New York Regional Weather

regional weather worcester, nyHOURLY REGIONAL WEATHER FOR WORCESTER, NY
Lat: 42.58N, Lon: 74.75W 
Web Search

Pass this page to a friend. Tell them to point their camera at the QR Code near the bottom of this page.

Feedback


°F Click to change Worcester hourly weather to Imperial units.Click to change Worcester hourly weather to Metric units. °C
Worcester Weather Map
UTC Time: 9/19/2021, 08:14
Your Time:

Worcester, NY Regional Weather

Expires:202109190900;;843150
ASUS41 KBGM 190810
RWRBGM

REGIONAL WEATHER ROUNDUP
NATIONAL WEATHER SERVICE BINGHAMTON NY
400 AM EDT SUN SEP 19 2021

Note: "fair" indicates few or no clouds below 12,000 feet with no
significant weather and/or obstructions to visibility.

* = Station(s) that does not report precipitation, such as rain, 
snow, etc, also no thunder or fog.


NYZ009-015>018-022>025-036-037-044>046-055>057-062-190900
...Central New York...
  
CITY           SKY/WX    TMP DP  RH WIND       PRES   REMARKS
Binghamton     CLEAR     54  53  97 N7        30.17F                  
Cortland       FOG       50  50 100 CALM      30.20S VSB 1/4          
Dansville      CLOUDY    57  55  93 CALM      30.21S FOG              
Elmira         FOG       56  55  97 W3        30.18S VSB 1/4          
Endicott       FOG       55  55 100 CALM      30.17  VSB 1/2          
Ithaca         CLEAR     53  53 100 NE5       30.20S                  
Hamilton       CLOUDY   N/A N/A N/A CALM      30.19  VSB 1/4          
Monticello     CLEAR     54  54 100 W3        30.16S                  
Oneonta        FAIR      52  52 100 NW3       30.17                   
Penn Yan       CLEAR     54  52  93 CALM      30.19F FOG              
Rome           CLEAR     50  49  96 CALM      30.19S                  
Seneca Falls   FAIR      54  54 100 CALM      30.19                   
Sidney         FOG       54  54 100 CALM      30.18  VSB 3/4          
Skaneateles    FAIR      50  50 100 CALM      30.19S                  
Syracuse       PTCLDY    54  54 100 CALM      30.18F                  
$$
 

SKY/WX - Weather  TMP - Temperature  DP - Dew Point  RH - Relative Humidity
WIND - Wind Direction/Speed PRES - Barometric Pressure VSB - Visibility
WCI - Wind Chill Index E13G22 Wind - East Wind 13 mph/Gusts of 22 mph